Weather in Voynilov

Ukraine / Ivano-Frankovsk District     49˚07′09″N   24˚29′36″E
temp.,
°C
wind,
m/s
gust,
m/s
humid.,
%
clouds,
%
prec.,
mm/h
press.,
hPa
HPBL,
m
2 december, wed
wed223:00−5˚se410810 0.0 1028303
02:00−5˚ese37880 0.0 1027214
05:00−6˚ese35910 0.0 1027140
08:00−6˚se25940 0.0 1027119
11:00−3˚ese35750 0.0 1026348
14:00−1˚ese46690 0.0 1024514
17:00−4˚ese36910 0.0 1023127
20:00−4˚se49960 0.0 1023272
3 december, thu
thu323:00−4˚se4109635 0.0 1022312
02:00−4˚se489755 0.0 1022263
05:00−5˚se489757 0.0 1021206
08:00−5˚se499631 0.0 1020224
11:00−2˚se598043 0.0 1019329
14:00se6117371 0.0 1016413
17:00−1˚se6128391 0.0 1016355
20:00−2˚se6129279 0.0 1015311
4 december, fri
fri423:00−2˚se6129412 0.0 1014330
02:00−2˚se6119642 0.0 1013318
05:00−2˚se5119385 0.0 1012297
08:00−2˚se5109156 0.0 1010250
11:00+2˚se712740 0.0 1010386
14:00+6˚se611713 0.0 1009439
17:00+2˚se368832 0.0 101087
20:00+1˚sse348951 0.0 101165
5 december, sat
sat523:00+1˚se488820 0.0 1012133
02:00+1˚se488810 0.0 1012140
05:00+2˚se49926 0.0 1012169
08:00+2˚se479215 0.0 1013135
11:00+6˚se5108257 0.0 1014278
14:00+8˚se5118078 0.0 1013339
17:00+7˚se5139096 0.0 1014286
20:00+6˚se6139488 0.0 1014315
6 december, sun
sun623:00+5˚se5129211 0.0 1015285
02:00+6˚se6139255 0.0 1014350
05:00+7˚se71691100 0.0 1013517
08:00+7˚se81789100 0.0 1013586
11:00+10˚se10177879 0.0 1012746
14:00+11˚se11177160 0.0 1011799
17:00+9˚se11207978 0.0 1011660
20:00+8˚se10188288 0.0 1012636